Location: Baix
(44.7118°N, 4.7648°E)
Time: 07:38:58
(UTC+00:00)

Vanguard 1 - Pass Details

Date: 27 November 2020
Orbit: 648 x 3834 km, 34.3° (Epoch: 21 January)

Event Time Altitude Azimuth Distance (km) Brightness Sun altitude
Rises 07:53:51 0° 261° (W) 4,255 12.9 7.9°
Reaches altitude 10° 07:56:18 10° 255° (WSW) 3,577 12.6 8.2°
Maximum altitude 08:05:30 50° 184° (S) 2,600 12.8 9.4°
Drops below altitude 10° 08:21:59 10° 116° (ESE) 6,182 15.8 11.5°
Sets 08:27:49 0° 113° (ESE) 7,563 15.9 12.2°
